パンスターズ彗星

C/2017 T2 ( PanSTARRS )

English version
Home page
Updated on November 7, 2017

---------------------------------------------------------------------

・ プロフィール

発見日 2017年10月2日
発見光度 19.9等
発見者 Pan-STARRS 1 telescope (Haleakala)

・ 写真集

・ 軌道要素

Epoch 2020 Apr. 21.0 TT = JDT 2458960.5
T 2020 May 6.23270 TT                                   MPCW
q   1.6171727            (2000.0)            P               Q
z  +0.0010197      Peri.   93.02125     -0.51063784     -0.40566060
 +/-0.0002754      Node    64.40477     -0.16309290     -0.81999188
e   0.9983510      Incl.   57.20018     +0.84418582     -0.40379795
From 80 observations 2017 Sept. 15-Oct. 24, mean residual 0".3.

・ 星図

・ 光度変化

        m1 = 5.0 + 5 logΔ + 10.0 log r

---------------------------------------------------------------------

軌道要素はM.P.E.C. 2017-U180に掲載されたものです。
星図はステラナビゲータ Ver.10 (アストロアーツ) で作成したものです。
光度グラフはComet for Windowsで作成したものです。

---------------------------------------------------------------------

Copyright(C) Seiichi Yoshida (comet@aerith.net). All rights reserved.